Home   Weather   Lexington   Past weeks

Flag for USA Past Weather in Lexington, North Carolina, USA — Yesterday and Last 2 Weeks

Now
27 °F

Clear.


Feels Like: 27 °F
Forecast: 19 / 45 °F
Wind: No wind

Location: Davidson County Airport

Current Time: Dec 10, 2016 at 9:27:34 pm

Latest Report: Dec 10, 2016 at 8:45 pm


Visibility: 10 mi

Pressure: 30.47 "Hg

Humidity: 66%

Dew Point: 17 °F

Location of LexingtonLocation

Past Weather in Lexington — Graph

°F

Lexington Temperature Yesterday

Maximum temperature yesterday: 40 °F (at 3:05 pm)
Minimum temperature yesterday: 26 °F (at 11:45 pm)
Average temperature yesterday: 33 °F

High & Low Weather Summary for the Past Weeks

 TemperatureHumidityPressure
High72 °F (Nov 30, 3:05 pm)100% (Nov 29, 10:45 pm)30.56 "Hg (Nov 29, 10:45 pm)
Low18 °F (Dec 10, 7:25 am)29% (Dec 10, 3:25 pm)29.70 "Hg (Nov 30, 10:05 pm)
Average46 °F71%30.11 "Hg
* Reported Nov 25 7:05 pm — Dec 10 7:45 pm, Lexington, Weather by CustomWeather, © 2016

Note: Actual official high and low records may vary slightly from our data, if they occured in-between our weather recording intervals... More about our weather records

Advertising

Lexington Weather History for the Previous 24 Hours

Scroll right to see more
 ConditionsComfort  
Time TempWeatherWind HumidityBarometerVisibility
7:45 pm
Sat, Dec 10
29 °FClear.No wind54%30.48 "Hg10 mi
7:25 pm29 °FClear.No wind52%30.48 "Hg10 mi
7:05 pm30 °FClear.No wind49%30.47 "Hg10 mi
6:25 pm32 °FClear.No wind48%30.46 "Hg10 mi
6:05 pm32 °FClear.No wind50%30.46 "Hg10 mi
5:45 pm34 °FClear.No wind41%30.45 "Hg10 mi
5:25 pm36 °FClear.No wind38%30.45 "Hg10 mi
5:05 pm36 °FSunny.No wind37%30.44 "Hg10 mi
4:45 pm39 °FSunny.No wind33%30.44 "Hg10 mi
4:25 pm40 °FSunny.No wind30%30.45 "Hg10 mi
4:05 pm41 °FSunny.No wind29%30.46 "Hg10 mi
3:45 pm41 °FSunny.3 mph30%30.45 "Hg10 mi
3:25 pm42 °FSunny.5 mph29%30.45 "Hg10 mi
3:05 pm42 °FSunny.No wind31%30.44 "Hg10 mi
2:45 pm41 °FSunny.No wind30%30.44 "Hg10 mi
2:25 pm41 °FSunny.5 mph30%30.44 "Hg10 mi
2:05 pm41 °FSunny.5 mph32%30.45 "Hg10 mi
1:25 pm39 °FSunny.No wind34%30.47 "Hg10 mi
12:45 pm39 °FSunny.3 mph38%30.49 "Hg10 mi
12:25 pm38 °FSunny.No wind39%30.50 "Hg10 mi
12:05 pm37 °FSunny.3 mph42%30.51 "Hg10 mi
11:45 am36 °FSunny.5 mph44%30.52 "Hg10 mi
11:25 am35 °FSunny.3 mph45%30.53 "Hg10 mi
11:05 am34 °FSunny.5 mph47%30.55 "Hg10 mi
10:45 am33 °FSunny.No wind51%30.55 "Hg10 mi
10:25 am32 °FSunny.No wind52%30.56 "Hg10 mi
10:05 am31 °FSunny.No wind53%30.56 "Hg10 mi
9:45 am30 °FSunny.No wind57%30.55 "Hg10 mi
9:25 am28 °FSunny.No wind57%30.55 "Hg10 mi
9:05 am27 °FSunny.No wind66%30.55 "Hg10 mi
8:45 am25 °FSunny.No wind71%30.54 "Hg10 mi
8:25 am22 °FSunny.No wind82%30.54 "Hg10 mi
8:05 am19 °FSunny.No wind86%30.53 "Hg10 mi
7:45 am18 °FSunny.No wind87%30.53 "Hg10 mi
7:25 am18 °FSunny.No wind88%30.53 "Hg10 mi
6:45 am18 °FClear.No wind85%30.52 "Hg10 mi
6:25 am18 °FClear.No wind86%30.51 "Hg10 mi
6:05 am18 °FClear.No wind87%30.51 "Hg10 mi
5:45 am18 °FClear.No wind88%30.49 "Hg10 mi
5:25 am19 °FClear.No wind83%30.49 "Hg10 mi
5:05 am19 °FClear.No wind84%30.50 "Hg10 mi
4:45 am20 °FClear.No wind81%30.50 "Hg10 mi
4:25 am20 °FClear.No wind74%30.50 "Hg10 mi
4:05 am21 °FClear.No wind77%30.49 "Hg10 mi
3:45 am21 °FClear.No wind74%30.49 "Hg10 mi
3:25 am22 °FClear.No wind72%30.49 "Hg10 mi
3:05 am24 °FClear.No wind65%30.49 "Hg10 mi
2:45 am23 °FClear.No wind66%30.49 "Hg10 mi
2:25 am24 °FClear.No wind61%30.48 "Hg10 mi
2:05 am24 °FClear.No wind60%30.48 "Hg10 mi
1:45 am25 °FClear.No wind58%30.48 "Hg10 mi
1:25 am26 °FClear.No wind57%30.48 "Hg10 mi
1:05 am27 °FClear.No wind56%30.48 "Hg10 mi
12:45 am26 °FClear.No wind60%30.48 "Hg10 mi
12:25 am26 °FClear.3 mph61%30.48 "Hg10 mi
12:05 am25 °FClear.No wind60%30.48 "Hg10 mi
11:45 pm
Fri, Dec 9
26 °FClear.No wind59%30.48 "Hg10 mi
11:25 pm28 °FClear.No wind54%30.48 "Hg10 mi
11:05 pm26 °FClear.No wind61%30.48 "Hg10 mi
10:45 pm26 °FClear.No wind59%30.49 "Hg10 mi
10:25 pm27 °FClear.No wind58%30.47 "Hg10 mi
10:05 pm28 °FClear.No wind55%30.46 "Hg10 mi
9:45 pm29 °FClear.No wind54%30.46 "Hg10 mi
9:25 pm29 °FClear.No wind51%30.45 "Hg10 mi
Weather by CustomWeather, © 2016

See weather overviewHow to use our weather pages